IU2CMQ-13 Weather Reports


Display with metric or nautical units.
time (UTC)temp
F
wind
direction
speed
MPH
gust
MPH
rain 1hr
in
rain 24hr
in
rain mn
in
humidity
%
barometer
mb
20260507181819 61 306 6.0 16.0 0.00 0.08 0.01 68 1014.1
20260507181317 61 321 8.0 15.0 0.00 0.08 0.01 68 1013.9
20260507180835 61 23 12.0 15.0 0.00 0.08 0.01 68 1013.9
20260507180333 61 336 9.0 15.0 0.00 0.08 0.01 68 1013.7
20260507175830 61 308 10.0 14.0 0.00 2.76 0.01 68 1013.6
20260507175344 61 344 10.0 13.0 0.00 2.76 0.01 68 1013.6
20260507174821 61 311 8.0 12.0 0.00 2.76 0.01 69 1013.5
20260507174320 61 310 10.0 15.0 0.00 2.76 0.01 69 1013.4
20260507173818 62 27 10.0 13.0 0.00 2.76 0.01 70 1013.4
20260507173316 62 317 9.0 13.0 0.00 2.76 0.01 71 1013.5
20260507172816 62 329 6.0 10.0 0.00 2.76 0.01 72 1013.4
20260507172335 62 298 5.0 10.0 0.00 2.76 0.01 72 1013.4
20260507171833 62 276 7.0 10.0 0.00 2.76 0.01 72 1013.4
20260507171327 63 304 6.0 8.0 0.00 2.76 0.01 70 1013.4
20260507170826 63 320 4.0 5.0 0.00 2.76 0.01 70 1013.3
20260507170325 63 319 4.0 6.0 0.00 2.76 0.01 70 1013.2
20260507165824 63 322 5.0 6.0 0.00 2.76 0.01 71 1013.2
20260507165344 63 297 3.0 5.0 0.00 2.76 0.01 72 1013.2
20260507164818 63 286 2.0 7.0 0.00 2.76 0.01 72 1013.2
20260507164336 63 293 4.0 8.0 0.00 2.76 0.01 71 1013.2
20260507163854 63 297 5.0 8.0 0.00 2.76 0.01 71 1013.2
20260507163330 64 254 6.0 8.0 0.00 2.76 0.01 69 1013.1
20260507162828 64 296 2.0 4.0 0.00 2.76 0.01 67 1013.1
20260507162346 64 331 2.0 4.0 0.00 2.76 0.01 67 1013.1
20260507161824 64 318 3.0 4.0 0.00 2.76 0.01 66 1013.2
20260507161322 64 294 3.0 5.0 0.00 2.76 0.01 65 1013.2
20260507160842 64 298 4.0 5.0 0.00 2.76 0.01 64 1013.2
20260507160352 64 231 1.0 2.0 0.00 2.76 0.01 65 1013.2
20260507155850 64 232 2.0 3.0 0.00 2.76 0.01 64 1013.1
20260507155328 65 232 1.0 4.0 0.00 2.76 0.01 62 1013.1
20260507154826 65 232 1.0 4.0 0.00 2.76 0.01 63 1013.1
20260507154324 65 195 1.0 3.0 0.00 2.76 0.01 62 1013.0
20260507153820 65 195 1.0 5.0 0.00 2.76 0.01 61 1013.2
20260507153318 65 168 3.0 5.0 0.00 2.76 0.01 61 1013.0
20260507152816 65 168 1.0 5.0 0.00 2.76 0.01 61 1013.0
20260507152335 66 170 2.0 5.0 0.00 2.76 0.01 61 1013.1
20260507151833 66 169 3.0 5.0 0.00 2.76 0.01 61 1013.0
20260507151331 65 221 0.0 1.0 0.00 2.76 0.01 62 1013.0
20260507150830 65 160 0.0 0.0 0.00 2.76 0.01 63 1013.1
20260507150331 65 160 0.0 0.0 0.00 2.76 0.01 63 1013.1
20260507145828 65 160 0.0 2.0 0.00 2.76 0.01 64 1013.1
20260507145325 65 133 1.0 3.0 0.00 2.76 0.01 65 1013.1
20260507144837 64 133 1.0 5.0 0.00 2.76 0.01 63 1013.1
20260507144334 65 132 3.0 5.0 0.00 2.76 0.01 64 1013.0
20260507143854 65 136 0.0 6.0 0.00 2.76 0.01 64 1013.1
20260507143330 65 143 3.0 6.0 0.00 2.76 0.01 65 1013.2
20260507142829 65 190 3.0 5.0 0.00 2.76 0.01 64 1013.1
20260507142326 65 161 3.0 4.0 0.00 2.76 0.01 64 1013.1
20260507141822 64 52 1.0 3.0 0.00 2.76 0.01 65 1013.1
20260507141320 63 53 0.0 6.0 0.00 2.76 0.01 66 1013.2
20260507140818 63 53 3.0 6.0 0.00 2.76 0.01 65 1013.2
20260507140317 63 52 2.0 5.0 0.00 2.76 0.01 65 1013.3
20260507135835 63 51 3.0 5.0 0.00 2.76 0.01 64 1013.3
20260507135353 63 59 1.0 6.0 0.00 2.76 0.01 65 1013.3
20260507134830 63 20 3.0 6.0 0.00 2.76 0.01 62 1013.3
20260507134326 63 34 4.0 6.0 0.00 2.76 0.01 63 1013.3
20260507133845 63 324 3.0 8.0 0.00 2.76 0.01 66 1013.4
20260507133322 63 355 4.0 8.0 0.00 2.76 0.01 67 1013.4
20260507132820 63 340 4.0 8.0 0.00 2.76 0.01 66 1013.5
20260507132319 63 350 4.0 8.0 0.00 2.76 0.01 65 1013.5
20260507131817 64 333 2.0 5.0 0.00 2.76 0.01 65 1013.5
20260507131316 63 154 0.0 5.0 0.00 2.76 0.01 66 1013.6
20260507130833 63 49 1.0 5.0 0.00 2.76 0.01 68 1013.5
20260507130352 64 133 2.0 4.0 0.00 2.76 0.01 70 1013.5
20260507125828 63 138 1.0 7.0 0.00 2.76 0.01 70 1013.5
20260507125325 63 112 3.0 8.0 0.00 2.76 0.01 70 1013.4
20260507124824 63 118 4.0 10.0 0.00 2.76 0.01 70 1013.4
20260507124320 62 153 6.0 10.0 0.00 2.76 0.01 70 1013.4
20260507123819 62 134 4.0 11.0 0.00 2.76 0.01 70 1013.4
20260507123317 63 181 7.0 11.0 0.00 2.76 0.01 70 1013.5
20260507122835 63 146 5.0 10.0 0.00 2.76 0.01 72 1013.4
20260507122331 63 136 7.0 10.0 0.00 2.76 0.01 72 1013.6
20260507121828 63 152 5.0 11.0 0.00 2.76 0.01 71 1013.5
20260507121325 63 137 6.0 9.0 0.00 2.76 0.01 70 1013.6
20260507120824 62 146 3.0 9.0 0.00 2.76 0.01 73 1013.7
20260507120342 62 178 6.0 10.0 0.00 2.95 0.01 71 1013.7
20260507115819 62 159 5.0 10.0 0.00 2.95 0.01 73 1013.7
20260507115315 62 150 7.0 11.0 0.00 2.95 0.01 70 1013.7
20260507114833 62 144 5.0 11.0 0.00 2.95 0.01 72 1013.8
20260507114331 62 161 6.0 10.0 0.00 2.95 0.01 72 1013.7
20260507113829 62 153 7.0 10.0 0.00 2.95 0.01 69 1013.7
20260507113328 62 128 5.0 11.0 0.00 2.95 0.01 72 1013.7
20260507112846 62 165 6.0 10.0 0.00 2.95 0.01 70 1013.8
20260507112321 62 159 7.0 11.0 0.00 2.95 0.01 70 1013.8
20260507111819 63 152 6.0 11.0 0.00 2.95 0.01 70 1013.8
20260507111317 62 154 6.0 10.0 0.00 2.95 0.01 71 1013.9
20260507110815 62 129 5.0 10.0 0.00 2.95 0.01 71 1013.9
20260507110328 61 144 5.0 10.0 0.00 2.95 0.01 71 1014.1
20260507105825 61 149 6.0 9.0 0.00 4.06 0.01 71 1014.1
20260507105325 61 163 6.0 9.0 0.00 4.06 0.01 73 1014.2
20260507104823 60 178 4.0 8.0 0.00 4.06 0.01 72 1014.1
20260507104321 61 175 5.0 11.0 0.00 4.06 0.01 72 1014.2
20260507103818 61 138 6.0 10.0 0.00 4.06 0.01 71 1014.3
20260507103315 61 140 7.0 10.0 0.00 4.06 0.01 71 1014.3
20260507102831 60 153 5.0 8.0 0.00 4.06 0.01 72 1014.3
20260507102329 60 158 5.0 6.0 0.00 4.06 0.01 71 1014.2
20260507101826 60 150 4.0 10.0 0.00 4.06 0.01 71 1014.4
20260507101345 60 150 6.0 10.0 0.00 4.06 0.01 70 1014.3
20260507100821 60 147 4.0 8.0 0.00 4.06 0.01 69 1014.3
20260507100319 60 158 6.0 8.0 0.00 4.29 0.01 70 1014.3
20260507095836 60 152 4.0 7.0 0.00 4.29 0.01 70 1014.3
20260507095331 60 166 3.0 5.0 0.00 4.29 0.01 70 1014.3
20260507094849 59 140 2.0 3.0 0.00 4.29 0.01 72 1014.4
20260507094326 59 182 2.0 4.0 0.00 4.29 0.01 71 1014.3
20260507093843 59 184 1.0 7.0 0.00 4.29 0.01 72 1014.4
20260507093321 59 139 2.0 7.0 0.00 4.29 0.01 72 1014.4
20260507092819 59 172 1.0 6.0 0.00 4.29 0.01 72 1014.4
20260507092314 59 175 4.0 8.0 0.00 4.29 0.01 70 1014.4
20260507091815 59 156 4.0 10.0 0.00 4.29 0.01 72 1014.3
20260507091330 59 140 6.0 9.0 0.00 4.29 0.01 72 1014.3
20260507090829 59 115 6.0 8.0 0.00 4.29 0.01 71 1014.3
20260507090326 59 150 3.0 5.0 0.00 4.29 0.01 73 1014.4
20260507085824 58 184 1.0 3.0 0.00 4.37 0.01 76 1014.4
20260507085322 57 185 2.0 5.0 0.00 4.37 0.01 77 1014.4
20260507084819 57 185 3.0 5.0 0.00 4.37 0.01 76 1014.4
20260507084319 58 181 4.0 5.0 0.00 4.37 0.01 75 1014.4
20260507083837 57 129 2.0 7.0 0.00 4.37 0.01 76 1014.4
20260507083334 58 116 4.0 7.0 0.00 4.37 0.01 76 1014.4
20260507082832 58 114 5.0 9.0 0.00 4.37 0.01 76 1014.3
20260507082330 58 137 2.0 7.0 0.00 4.37 0.01 77 1014.3
20260507081828 58 195 1.0 5.0 0.00 4.37 0.01 77 1014.2
20260507081324 58 210 3.0 7.0 0.00 4.37 0.01 78 1014.2
20260507080821 57 135 4.0 7.0 0.00 4.37 0.01 80 1014.3
20260507080339 57 140 4.0 7.0 0.00 4.37 0.01 80 1014.2
20260507075853 57 69 3.0 5.0 0.00 4.49 0.01 81 1014.0
20260507075350 56 69 2.0 4.0 0.00 4.49 0.01 81 1014.2
20260507074827 56 68 3.0 4.0 0.00 4.49 0.01 82 1014.2
20260507074324 56 68 0.0 5.0 0.00 4.49 0.01 82 1014.2
20260507073841 56 68 3.0 6.0 0.00 4.49 0.01 83 1014.1
20260507073341 55 68 4.0 6.0 0.00 4.49 0.01 82 1014.1
20260507072816 55 68 3.0 6.0 0.00 4.49 0.01 82 1014.0
20260507072315 56 70 3.0 5.0 0.00 4.49 0.01 82 1014.0
20260507071833 55 59 2.0 4.0 0.00 4.49 0.01 83 1014.1
20260507071330 55 59 1.0 6.0 0.00 4.49 0.01 83 1014.1
20260507070829 54 59 4.0 6.0 0.00 4.49 0.01 84 1013.9
20260507070328 54 62 4.0 6.0 0.00 4.49 0.01 84 1013.9
20260507065823 55 67 2.0 7.0 0.00 4.61 0.01 84 1013.9
20260507065319 55 110 3.0 7.0 0.00 4.61 0.01 83 1014.0
20260507064817 55 221 1.0 7.0 0.00 4.61 0.01 82 1013.9
20260507064315 55 157 2.0 8.0 0.00 4.61 0.01 83 1013.7
20260507063814 55 147 5.0 8.0 0.00 4.61 0.01 83 1013.8
20260507063331 55 119 5.0 8.0 0.00 4.61 0.01 83 1013.7
20260507062829 55 131 5.0 8.0 0.00 4.61 0.01 83 1013.7
20260507062327 55 110 3.0 7.0 0.00 4.61 0.01 83 1013.7
20260507061846 54 113 3.0 4.0 0.00 4.61 0.01 84 1013.8
20260507061322 54 123 2.0 3.0 0.00 4.61 0.01 84 1013.7
20260507060820 54 232 1.0 2.0 0.00 4.61 0.01 83 1013.8
20260507060315 54 232 0.0 4.0 0.00 4.84 0.01 83 1013.7
20260507055832 53 232 2.0 5.0 0.00 4.84 0.01 83 1013.7
20260507055331 53 232 4.0 9.0 0.00 4.84 0.01 83 1013.8
20260507054827 53 19 3.0 11.0 0.00 4.84 0.01 82 1013.7
20260507054447 53 24 8.0 13.0 0.00 4.84 0.01 82 1013.6
20260507053829 53 360 8.0 13.0 0.00 4.84 0.01 83 1013.5
20260507053349 53 298 8.0 12.0 0.00 4.84 0.01 82 1013.5
20260507052825 53 355 9.0 13.0 0.00 4.84 0.01 81 1013.4
20260507052322 53 320 8.0 15.0 0.00 4.84 0.01 81 1013.5
20260507051839 53 314 10.0 15.0 0.00 4.84 0.01 82 1013.4
20260507051359 53 316 5.0 10.0 0.00 4.84 0.01 82 1013.4
20260507050817 53 344 6.0 11.0 0.00 4.84 0.01 82 1013.4
20260507050316 53 46 8.0 11.0 0.00 5.16 0.01 82 1013.3
20260507045842 53 18 5.0 12.0 0.00 5.16 0.01 82 1013.2
20260507045336 54 355 9.0 12.0 0.00 5.16 0.01 81 1013.2
20260507044853 54 19 5.0 14.0 0.00 5.16 0.01 81 1013.2
20260507044330 54 297 8.0 15.0 0.00 5.16 0.01 80 1013.1
20260507043828 53 292 8.0 17.0 0.00 5.16 0.01 80 1013.0
20260507043348 53 280 7.0 14.0 0.00 5.16 0.01 83 1013.0
20260507042828 53 286 8.0 12.0 0.00 5.16 0.01 84 1013.0
20260507042327 52 19 5.0 9.0 0.00 5.16 0.01 86 1013.0
20260507041842 52 308 4.0 11.0 0.00 5.16 0.01 86 1013.0
20260507041338 52 302 4.0 12.0 0.00 5.16 0.01 85 1012.9
20260507040857 52 16 6.0 12.0 0.00 5.16 0.01 85 1013.0
20260507040337 52 9 4.0 10.0 0.00 5.16 0.01 86 1012.8
20260507035814 52 44 3.0 6.0 0.00 5.16 0.01 86 1012.8
20260507035333 52 43 1.0 3.0 0.00 5.16 0.01 87 1012.9
20260507034831 52 43 2.0 4.0 0.00 5.16 0.01 87 1012.8
20260507034327 52 43 3.0 4.0 0.00 5.16 0.01 87 1012.8
20260507033827 52 17 0.0 0.0 0.00 5.16 0.01 86 1012.8
20260507033327 53 17 0.0 0.0 0.00 5.16 0.01 86 1012.9
20260507032826 53 17 0.0 8.0 0.00 5.16 0.01 85 1012.9
20260507032323 52 17 2.0 8.0 0.00 5.16 0.01 85 1012.8
20260507031820 53 20 3.0 6.0 0.00 5.16 0.01 85 1012.9
20260507031338 53 360 3.0 8.0 0.00 5.16 0.01 85 1012.8
20260507030839 52 304 4.0 8.0 0.00 5.16 0.01 86 1012.8
20260507030338 52 27 3.0 6.0 0.00 5.20 0.01 87 1012.8
20260507025817 51 32 4.0 6.0 0.00 5.20 0.01 88 1012.7
20260507025315 52 306 2.0 3.0 0.00 5.20 0.01 88 1012.9
20260507024832 52 306 2.0 3.0 0.00 5.20 0.01 88 1012.8
20260507024330 52 306 0.0 2.0 0.00 5.20 0.01 88 1012.7
20260507023829 52 306 0.0 2.0 0.00 5.20 0.01 87 1012.7
20260507023325 52 306 0.0 2.0 0.00 5.20 0.01 86 1012.5
20260507022824 52 306 0.0 4.0 0.00 5.20 0.01 86 1012.6
20260507022344 52 306 2.0 4.0 0.00 5.20 0.01 85 1012.6
20260507021821 52 329 2.0 5.0 0.00 5.20 0.01 84 1012.5
20260507021320 53 263 3.0 9.0 0.00 5.20 0.01 83 1012.5
20260507020818 53 329 3.0 14.0 0.00 5.20 0.01 83 1012.6
20260507020316 53 5 8.0 14.0 0.00 5.24 0.01 82 1012.4
20260507015814 53 294 6.0 17.0 0.00 5.24 0.01 83 1012.4
20260507015333 53 271 6.0 13.0 0.00 5.24 0.01 83 1012.4
20260507014824 52 327 5.0 9.0 0.00 5.24 0.01 84 1012.3
20260507014321 52 336 3.0 7.0 0.00 5.24 0.01 86 1012.4
20260507013821 52 313 4.0 6.0 0.00 5.24 0.01 87 1012.5
20260507013320 52 286 5.0 7.0 0.00 5.24 0.01 87 1012.5
20260507012817 52 260 6.0 7.0 0.00 5.24 0.01 88 1012.6
20260507012315 51 265 2.0 5.0 0.00 5.24 0.01 88 1012.5
20260507011833 51 252 3.0 6.0 0.00 5.24 0.01 88 1012.4
20260507011330 51 63 1.0 3.0 0.04 5.24 0.01 87 1012.5
20260507010848 52 277 0.0 7.0 0.04 5.24 0.01 87 1012.4
20260507010325 52 277 5.0 7.0 0.04 5.24 0.01 86 1012.5
20260507005823 52 292 4.0 5.0 0.04 5.28 0.01 85 1012.5
20260507005342 53 14 3.0 6.0 0.04 5.28 0.01 83 1012.6
20260507004839 53 300 3.0 10.0 0.04 5.28 0.01 83 1012.6
20260507004357 52 327 5.0 10.0 0.04 5.28 0.01 83 1012.5
20260507003855 52 337 4.0 13.0 0.04 5.28 0.01 84 1012.6
20260507003352 52 340 7.0 13.0 0.04 5.28 0.01 84 1012.6
20260507002829 52 328 6.0 11.0 0.04 5.28 0.01 85 1012.6
20260507002325 52 300 4.0 9.0 0.04 5.28 0.01 86 1012.8
20260507001824 52 313 1.0 4.0 0.04 5.28 0.01 87 1012.8
20260507001341 52 312 2.0 9.0 0.00 5.24 0.00 87 1012.8
20260507000819 52 26 2.0 6.0 0.00 5.24 0.00 87 1012.7
20260507000336 52 321 1.0 8.0 0.00 5.24 0.00 86 1012.8
20260506235837 52 303 3.0 8.0 0.00 5.24 0.00 86 1012.7
20260506235334 52 346 2.0 8.0 0.00 5.24 0.00 86 1012.7
20260506234832 52 265 6.0 12.0 0.00 5.24 0.00 86 1012.6
20260506234330 53 339 7.0 12.0 0.00 5.24 0.00 84 1012.6
20260506233827 53 285 7.0 14.0 0.00 5.24 0.00 83 1012.5
20260506233324 53 22 8.0 13.0 0.00 5.24 0.00 82 1012.6
20260506232822 53 335 7.0 13.0 0.00 5.24 0.00 82 1012.6
20260506232320 53 291 9.0 13.0 0.00 5.24 0.00 82 1012.6
20260506231820 53 245 7.0 16.0 0.00 5.24 0.00 82 1012.7
20260506231335 52 256 10.0 16.0 0.00 5.24 0.00 83 1012.7
20260506230832 52 288 6.0 15.0 0.00 5.24 0.00 84 1012.5
20260506230350 52 245 6.0 8.0 0.00 5.24 0.00 86 1012.5
20260506225827 52 209 4.0 5.0 0.00 5.43 0.00 85 1012.5
20260506225324 52 341 3.0 5.0 0.00 5.43 0.00 85 1012.5
20260506224823 52 267 1.0 8.0 0.00 5.43 0.00 85 1012.6
20260506224318 52 246 4.0 11.0 0.00 5.43 0.00 84 1012.6
20260506223837 53 269 8.0 13.0 0.00 5.43 0.00 83 1012.5
20260506223315 53 319 8.0 18.0 0.00 5.43 0.00 82 1012.4
20260506222833 53 305 7.0 18.0 0.00 5.43 0.00 81 1012.5
20260506222330 53 326 10.0 18.0 0.00 5.43 0.00 80 1012.6
20260506221827 53 312 9.0 14.0 0.00 5.43 0.00 81 1012.7
20260506221322 52 5 6.0 12.0 0.00 5.43 0.00 83 1012.8
20260506220840 52 32 8.0 11.0 0.00 5.43 0.00 84 1012.7
20260506220337 52 313 5.0 14.0 0.00 5.43 0.00 83 1012.7
20260506215826 53 29 8.0 14.0 0.00 5.55 1.38 83 1012.7
20260506215343 53 13 9.0 12.0 0.00 5.55 1.38 82 1012.8
20260506214820 53 330 4.0 11.0 0.00 5.55 1.38 81 1012.8
20260506214318 53 327 7.0 15.0 0.00 5.55 1.38 80 1012.7
20260506213844 54 349 4.0 15.0 0.00 5.55 1.38 80 1012.6
20260506213321 54 303 6.0 14.0 0.00 5.55 1.38 80 1012.7
20260506212820 54 334 7.0 13.0 0.00 5.55 1.38 79 1012.6
20260506212319 54 19 7.0 11.0 0.00 5.55 1.38 79 1012.7
20260506211819 54 19 5.0 12.0 0.00 5.55 1.38 79 1012.7
20260506211336 54 5 6.0 12.0 0.00 5.55 1.38 78 1012.7
20260506210853 55 318 5.0 11.0 0.00 5.55 1.38 78 1012.6
20260506210351 54 350 5.0 13.0 0.00 5.55 1.38 79 1012.5
20260506205828 54 355 6.0 13.0 0.00 5.55 1.38 82 1012.7
20260506205325 53 351 2.0 11.0 0.00 5.55 1.38 83 1012.4
20260506204823 54 9 5.0 13.0 0.00 5.55 1.38 83 1012.6
20260506204347 54 269 10.0 14.0 0.00 5.55 1.38 83 1012.7
20260506203824 54 306 6.0 15.0 0.00 5.55 1.38 83 1012.6
20260506203321 53 281 9.0 15.0 0.00 5.55 1.38 84 1012.5
20260506202835 53 23 8.0 12.0 0.00 5.55 1.38 83 1012.5
20260506202350 53 355 5.0 11.0 0.00 5.55 1.38 81 1012.6
20260506201826 54 355 5.0 13.0 0.00 5.55 1.38 80 1012.5
20260506201324 54 304 8.0 12.0 0.00 5.55 1.38 79 1012.4
20260506200823 54 302 8.0 15.0 0.00 5.55 1.38 80 1012.4
20260506200320 54 286 6.0 19.0 0.00 5.55 1.38 83 1012.4
20260506195822 54 295 7.0 24.0 0.00 5.55 1.38 88 1012.3
20260506195319 54 265 15.0 24.0 0.00 5.55 1.38 89 1012.3
20260506194837 54 285 14.0 24.0 0.00 5.55 1.38 88 1012.0
20260506194340 53 290 13.0 24.0 0.00 5.55 1.38 87 1011.9
20260506193834 54 305 9.0 15.0 0.00 5.55 1.38 85 1011.6
20260506193334 54 262 7.0 14.0 0.00 5.55 1.38 84 1011.7
20260506192831 54 311 9.0 19.0 0.00 5.55 1.38 83 1011.7
20260506192325 54 306 11.0 19.0 0.00 5.55 1.38 82 1011.7
20260506191820 54 306 7.0 15.0 0.00 5.55 1.38 80 1011.6
20260506191317 54 309 5.0 15.0 0.00 5.55 1.38 81 1011.5
20260506190839 54 281 6.0 14.0 0.00 5.55 1.38 81 1011.6
20260506190335 54 305 9.0 14.0 0.00 5.55 1.38 80 1011.5
20260506185835 54 317 9.0 14.0 0.20 5.55 1.38 80 1011.4
20260506185332 54 313 9.0 17.0 0.28 5.55 1.38 80 1011.2
20260506184851 54 323 11.0 17.0 0.31 5.55 1.38 79 1011.2
20260506184326 54 355 5.0 16.0 0.39 5.55 1.38 80 1011.3
20260506183831 54 13 10.0 17.0 0.59 5.55 1.38 81 1011.1
20260506183332 54 355 10.0 19.0 1.22 5.55 1.38 81 1010.9
20260506182829 54 323 13.0 24.0 1.77 5.55 1.38 81 1011.0
20260506182329 54 336 16.0 24.0 2.60 5.55 1.38 82 1011.1